Погода в Старом Ханино

Россия / Тульская область     54°11′42″N   36°37′31″E
темп.,
°C
ветер,
м/с
пор.,
м/с
влажн.,
%
обл.,
%
осадки,
мм/ч
давл.,
гПа
погр.,
м
27 января, чт
чт2700:00−14сз119997 0.1 101811
03:00−17з22100100 0.1 101913
06:00−18зюз1110095 0.1 10199
09:00−18ю2210093 0.1 101814
12:00−11ююз3696100 0.0 1017204
15:00−9ю4894100 0.0 1016341
18:00−14ю499759 0.0 1015153
21:00−14ю5129773 0.0 1014221
28 января, пт
пт2800:00−13ю5149593 0.0 1012269
03:00−11ю5139491 0.1 1010333
06:00−11ю61394100 0.1 1008299
09:00−9ююв61495100 0.4 1006376
12:00−6ю61395100 0.9 1005462
15:00−5ю61295100 1.4 1003492
18:00−4ююв51296100 0.8 1003437
21:00−3ю4109697 1.4 1002305
29 января, сб
сб2900:00−3ю4997100 0.4 1002268
03:00−2ююз4998100 1.4 1002390
06:00−3ююз379888 1.0 1002173
09:00−7ююз239989 1.1 100436
12:00−2юз2496100 0.0 1004264
15:00−1зюз3493100 0.1 1004396
18:00−2зюз259899 0.3 1005118
21:00−5зсз4895100 0.6 1006302
30 января, вс
вс3000:00−9з379787 0.1 1007153
03:00−13ююз2399100 0.1 100644
06:00−7ююз51192100 0.1 1002466
09:00−6ю71790100 0.1 998555
12:00−5ю91794100 1.5 993924
15:00−4ююз91694100 3.5 989817
18:00−3ююз81695100 1.1 988723
21:00−2ююз71290100 1.3 987640
31 января, пн
пн3100:00−2ю41095100 0.3 987483
03:00−2ю41095100 0.3 986468
06:00−2ююв61396100 1.1 984737
09:00−2ююв51197100 2.4 983601
12:00−1ю3799100 1.9 983493
15:00−1зсз469590 2.9 985445
18:00−3зсз5109695 0.2 988419
21:00−4з5119697 0.4 991408